Hourly Data Report for August 28, 2017

TORONTO CITY
ONTARIO

43°40'00.000" N
79°24'00.000" W
112.50 m
6158355
71508
XTO

Download Data

Hourly Data (August 2017)
Hourly Data Report for August 28, 2017
TIME
LST
Temp Definition
°C
Dew Point Definition
°C
Rel Hum Definition
%
Precip. Amount Definition
mm

Wind Dir Definition
10's deg

Wind Spd Definition
km/h
Visibility Definition
km
Stn Press Definition
kPa
Hmdx Definition


Wind Chill Definition


Weather Definition


00:00 18.2 13.3 73 0.0 LegendMM LegendMM   100.94     LegendNANA
01:00 18.6 12.8 69 0.0 LegendMM LegendMM   100.89     LegendNANA
02:00 18.4 12.1 67 0.0 LegendMM LegendMM   100.86     LegendNANA
03:00 18.2 12.4 69 0.0 LegendMM LegendMM   100.83     LegendNANA
04:00 17.8 13.0 73 0.0 LegendMM LegendMM   100.85     LegendNANA
05:00 17.3 13.1 76 0.0 LegendMM LegendMM   100.89     LegendNANA
06:00 17.4 13.0 75 0.0 LegendMM LegendMM   100.93     LegendNANA
07:00 17.7 12.6 72 0.0 LegendMM LegendMM   100.94     LegendNANA
08:00 18.3 12.7 70 0.0 LegendMM LegendMM   100.96     LegendNANA
09:00 19.0 12.7 67 0.0 LegendMM LegendMM   100.98     LegendNANA
10:00 19.5 12.6 64 0.0 LegendMM LegendMM   100.96     LegendNANA
11:00 19.7 11.2 58 0.0 LegendMM LegendMM   100.97     LegendNANA
12:00 19.9 11.5 58 0.0 LegendMM LegendMM   100.94     LegendNANA
13:00 20.3 12.0 59 0.0 LegendMM LegendMM   100.92     LegendNANA
14:00 21.2 12.2 57 0.0 LegendMM LegendMM   100.87     LegendNANA
15:00 21.8 10.9 50 0.0 LegendMM LegendMM   100.83     LegendNANA
16:00 21.5 11.4 53 0.0 LegendMM LegendMM   100.83     LegendNANA
17:00 21.2 11.3 53 0.0 LegendMM LegendMM   100.83     LegendNANA
18:00 21.0 11.5 55 0.0 LegendMM LegendMM   100.79     LegendNANA
19:00 20.5 12.1 59 0.0 LegendMM LegendMM   100.78     LegendNANA
20:00 20.2 13.5 66 0.0 LegendMM LegendMM   100.78     LegendNANA
21:00 19.9 14.3 70 0.0 LegendMM LegendMM   100.78     LegendNANA
22:00 20.0 13.6 67 0.0 LegendMM LegendMM   100.79     LegendNANA
23:00 20.0 12.4 62 0.0 LegendMM LegendMM   100.78     LegendNANA

Notes on Data Quality.

Legend

  • E = Estimated
  • M = Missing
  • NA = Not Available*
  • [empty] = Indicates an unobserved value
Date modified: